FLOCK 3P-53

Last updated on Wed Feb 14 2018 16:20:32 GMT+0000 (Coordinated Universal Time)

1 42013U 17008BT 18044.73515890 .00002335 00000-0 99601-4 0 9993 2 42013 97.4656 110.3317 0009196 91.4750 268.7541 15.23896171 55103
UTC large
Height (km)
Speed (km/s)
/
Latitude / Longitude
Inclination (degrees)
Orbital Period (minutes)
Azimuth
Elevation
Range (km)
Doppler Factor

Next 0 passes for location: London (51.5072 / 0.1276)

Sorry there are no passes over London.
FLOCK 3P-53